Weather History for Carlsbad, NM

Change the Weather History Date:

Sunday, June 3, 2012

  Actual Average Record
Temperature  
Mean Temperature 81 °F -  
Max Temperature 102 °F 91 °F 105 °F (1998)
Min Temperature 62 °F 61 °F 51 °F (1970)
Cooling Degree Days 16    
Growing Degree Days 31 (Base 50)    
Moisture  
Dew Point 39 °F    
Average Humidity 29    
Maximum Humidity 67    
Minimum Humidity 5    
Precipitation  
Precipitation 0.00 in - - ()
Sea Level Pressure  
Sea Level Pressure 29.66 in    
Wind  
Wind Speed 7 mph (SW)    
Max Wind Speed 16 mph    
Max Gust Speed 18 mph    
Visibility 10 miles    
Events      
Averages and records for this station are not official NWS values.
T = Trace of Precipitation, MM = Missing Value Source: NWS Daily Summary

Daily Weather History Graph

Daily Weather History Graph

Search for Another Location

Airport:

Trip Planner

Search our weather history database for the weather conditions in past years. The results will help you decide how hot, cold, wet, or windy it might be!

Date:

Astronomy

Jun. 03, 2012 Rise Set
Actual Time 5:50 AM MDT 8:00 PM MDT
Civil Twilight 5:22 AM MDT 8:28 PM MDT
Nautical Twilight 4:48 AM MDT 9:02 PM MDT
Astronomical Twilight 4:11 AM MDT 9:39 PM MDT
Moon 7:29 PM MDT (6/3) 4:59 AM MDT (6/3)
Length of Visible Light 15h 06m
Length of Day
14h 10m
Waxing Gibbous, 99% of the Moon is Illuminated
Jun 3
Waxing Gibbous
Jun 4
Full
Jun 11
Last Quarter
Jun 19
New
Jun 26
First Quarter

Hourly Weather History & Observations

Time (MDT) Temp. Dew Point Humidity Pressure Visibility Wind Dir Wind Speed Gust Speed Precip Events Conditions
12:53 AM 75.9 °F 53.1 °F 45% 29.65 in 10.0 mi SSE 9.2 mph - N/A   Clear
1:53 AM 75.9 °F 54.0 °F 46% 29.63 in 10.0 mi SE 11.5 mph - N/A   Clear
2:53 AM 71.1 °F 54.0 °F 55% 29.64 in 10.0 mi Calm Calm - N/A   Clear
3:53 AM 68.0 °F 52.0 °F 56% 29.64 in 10.0 mi South 6.9 mph - N/A   Clear
4:53 AM 64.0 °F 51.1 °F 63% 29.66 in 10.0 mi NE 4.6 mph - N/A   Clear
5:53 AM 62.1 °F 51.1 °F 67% 29.68 in 10.0 mi WNW 4.6 mph - N/A   Clear
6:53 AM 66.0 °F 53.1 °F 63% 29.70 in 10.0 mi North 4.6 mph - N/A   Clear
7:53 AM 72.0 °F 55.0 °F 55% 29.71 in 10.0 mi Calm Calm - N/A   Clear
8:53 AM 78.1 °F 46.0 °F 32% 29.72 in 10.0 mi NE 4.6 mph - N/A   Clear
9:53 AM 84.0 °F 44.1 °F 25% 29.71 in 10.0 mi Variable 3.5 mph - N/A   Clear
10:53 AM 88.0 °F 45.0 °F 22% 29.71 in 10.0 mi Variable 3.5 mph - N/A   Clear
11:53 AM 93.0 °F 41.0 °F 16% 29.69 in 10.0 mi Variable 5.8 mph - N/A   Clear
12:53 PM 96.1 °F 39.0 °F 14% 29.68 in 10.0 mi Variable 5.8 mph 18.4 mph N/A   Clear
1:53 PM 99.0 °F 30.9 °F 9% 29.65 in 10.0 mi Variable 3.5 mph - N/A   Clear
2:53 PM 100.9 °F 26.1 °F 7% 29.63 in 10.0 mi SW 9.2 mph - N/A   Clear
3:53 PM 100.0 °F 26.1 °F 7% 29.62 in 10.0 mi SSE 6.9 mph - N/A   Clear
4:53 PM 100.0 °F 16.0 °F 5% 29.62 in 10.0 mi WNW 16.1 mph - N/A   Clear
5:53 PM 100.0 °F 17.1 °F 5% 29.61 in 10.0 mi West 13.8 mph - N/A   Clear
6:53 PM 98.1 °F 18.0 °F 6% 29.61 in 10.0 mi West 10.4 mph - N/A   Clear
7:53 PM 88.0 °F 21.9 °F 9% 29.63 in 10.0 mi West 9.2 mph - N/A   Clear
8:53 PM 86.0 °F 19.9 °F 9% 29.63 in 10.0 mi WSW 12.7 mph - N/A   Clear
9:53 PM 84.0 °F 25.0 °F 12% 29.66 in 10.0 mi Calm Calm - N/A   Clear
10:53 PM 82.0 °F 48.9 °F 31% 29.67 in 10.0 mi SSW 8.1 mph - N/A   Clear
11:53 PM 78.1 °F 51.1 °F 39% 29.68 in 10.0 mi SSE 9.2 mph - N/A   Clear